Date,TemperatureHighF,TemperatureAvgF,TemperatureLowF,DewpointHighF,DewpointAvgF,DewpointLowF,HumidityHigh,HumidityAvg,HumidityLow,PressureMaxIn,PressureMinIn,WindSpeedMaxMPH,WindSpeedAvgMPH,GustSpeedMaxMPH,PrecipitationSumIn
2014-1-1,5,0,-5,-4,-9,-14,65,65,65,30.38,30.29,23,8,23,0.00
2014-1-2,4,-4,-20,-5,-13,-28,65,65,65,30.44,30.32,15,5,18,0.00
2014-1-3,20,6,-21,12,-4,-29,70,63,49,30.38,29.55,30,9,31,0.00
2014-1-4,33,22,2,26,11,-12,75,63,47,30.17,29.52,35,9,35,0.00
2014-1-5,2,-7,-19,-12,-20,-31,52,52,52,30.32,30.17,39,12,39,0.00
2014-1-6,-11,-19,-23,-23,-31,-35,52,52,52,30.29,30.20,34,11,36,0.00
2014-1-7,9,-3,-13,-5,-17,-25,52,52,52,30.23,30.11,15,2,16,0.00
2014-1-8,5,-5,-13,-8,-18,-25,52,52,52,30.47,30.23,16,2,18,0.00
2014-1-9,19,5,-13,14,-6,-26,82,59,44,30.44,29.96,20,5,22,0.00
2014-1-10,32,27,18,28,23,13,90,87,82,29.96,29.49,20,3,20,0.00
2014-1-11,30,25,18,27,20,14,90,80,66,29.76,29.49,22,4,22,0.00
2014-1-12,42,33,22,28,22,19,90,66,44,29.73,29.43,20,5,27,0.00
2014-1-13,34,31,26,27,16,12,77,55,45,29.73,29.52,28,8,28,0.00
2014-1-14,33,22,6,31,12,-4,90,65,54,30.08,29.49,42,12,42,0.00
2014-1-15,23,12,-1,13,0,-11,74,59,45,30.14,29.55,31,8,31,0.00
2014-1-16,33,19,2,28,5,-14,80,55,43,29.85,29.43,44,13,44,0.00
2014-1-17,11,4,-1,-6,-12,-17,46,46,46,29.99,29.85,28,7,31,0.00
2014-1-18,21,14,6,15,4,-11,80,66,46,29.96,29.49,23,7,29,0.00
2014-1-19,41,29,14,23,17,5,79,62,45,29.85,29.49,31,11,31,0.04
2014-1-20,32,20,-2,21,11,-10,75,66,49,30.35,29.73,31,9,31,0.00
2014-1-21,8,-1,-14,0,-9,-21,69,69,69,30.44,30.02,23,6,24,0.00
2014-1-22,12,3,-11,4,-5,-18,69,69,69,30.44,29.93,35,10,40,0.00
2014-1-23,-1,-10,-16,-9,-17,-24,69,69,69,30.70,30.35,24,7,26,0.00
2014-1-24,35,22,-5,31,11,-13,90,63,42,30.35,29.49,31,13,32,0.00
2014-1-25,32,11,4,17,-7,-14,57,43,36,29.91,29.52,32,11,46,0.00
2014-1-26,28,9,-6,19,-4,-19,82,57,42,30.08,29.34,58,14,59,0.00
2014-1-27,-5,-10,-16,-17,-22,-28,54,54,54,30.41,30.08,34,10,38,0.00
2014-1-28,4,-12,-19,-10,-24,-30,54,54,54,30.41,30.14,27,2,29,0.00
2014-1-29,30,12,-9,8,-4,-21,54,49,41,30.14,29.64,28,6,31,0.00
2014-1-30,34,18,-2,23,4,-14,77,53,45,30.05,29.37,46,10,46,0.00
2014-1-31,14,2,-4,0,-11,-17,53,53,53,30.17,30.02,18,3,21,0.00
2014-2-1,28,11,0,7,-4,-13,56,51,42,30.20,29.93,21,5,28,0.00
2014-2-2,15,2,-7,0,-14,-19,54,49,44,30.32,30.20,16,3,20,0.00
2014-2-3,26,10,-3,6,-7,-20,55,47,42,30.32,30.20,15,4,16,0.00
2014-2-4,18,10,5,0,-4,-11,55,52,43,30.41,30.32,24,7,24,0.00
2014-2-5,7,1,-6,-10,-16,-22,45,45,45,30.50,30.32,27,10,27,0.00
2014-2-6,6,-3,-11,-10,-19,-26,45,45,45,30.50,30.29,24,8,25,0.00
2014-2-7,17,2,-10,-1,-14,-25,46,45,43,30.29,30.17,24,7,27,0.00
2014-2-8,23,8,-7,3,-9,-23,53,46,42,30.17,30.05,15,2,15,0.00
2014-2-9,7,0,-9,-9,-16,-24,46,46,46,30.38,30.14,24,7,24,0.00
2014-2-10,4,-6,-16,-12,-21,-30,46,46,46,30.47,30.38,19,4,19,0.00
2014-2-11,11,-2,-22,-6,-18,-36,46,46,46,30.47,30.11,25,6,26,0.00
2014-2-12,29,17,7,8,2,-6,64,49,41,30.11,29.85,23,5,23,0.00
2014-2-13,38,18,4,19,5,-9,75,58,44,29.88,29.55,41,11,45,0.00
2014-2-14,14,7,1,1,-6,-11,56,56,56,30.05,29.70,28,7,28,0.00
2014-2-15,19,9,-6,13,-1,-17,78,62,56,30.05,29.79,22,5,23,0.00
2014-2-16,21,17,8,10,4,-1,72,58,45,30.23,29.99,31,7,31,0.00
2014-2-17,42,26,19,37,16,6,88,68,46,30.02,29.67,30,8,33,0.04
2014-2-18,50,33,19,29,19,11,79,57,35,29.82,29.55,23,6,24,0.00
2014-2-19,47,33,21,27,22,17,89,66,41,29.88,29.73,19,6,22,0.00
2014-2-20,36,32,15,32,27,10,97,83,57,29.73,29.23,19,3,20,0.00
2014-2-21,21,15,10,10,5,-2,80,65,52,29.82,29.37,0,0,0,0.00
2014-2-22,21,12,5,2,-3,-10,58,52,44,30.14,29.82,19,2,21,0.00
2014-2-23,18,9,-2,0,-7,-16,50,48,44,30.29,30.14,28,5,28,0.00
2014-2-24,18,8,-1,-1,-10,-16,47,44,40,30.35,30.26,17,6,20,0.00
2014-2-25,10,1,-7,-9,-17,-25,41,41,41,30.35,30.26,28,10,30,0.00
2014-2-26,18,3,-12,3,-14,-29,57,45,41,30.35,29.70,44,13,44,0.00
2014-2-27,2,-6,-13,-12,-19,-26,52,52,52,30.17,29.88,35,6,35,0.00
2014-2-28,29,9,-13,7,-5,-26,65,52,38,30.11,29.88,25,6,25,0.00
2014-3-1,12,1,-8,0,-10,-18,58,58,58,30.47,30.11,28,9,28,0.00
2014-3-2,0,-8,-15,-11,-19,-25,58,58,58,30.55,30.47,21,6,21,0.00
2014-3-3,19,1,-18,2,-15,-28,58,47,35,30.53,30.20,19,4,22,0.00
2014-3-4,23,15,7,9,-2,-14,72,47,37,30.23,30.11,16,6,18,0.00
2014-3-5,24,17,8,9,4,0,73,58,45,30.41,30.23,20,6,20,0.00
2014-3-6,29,21,14,14,8,1,72,57,45,30.35,29.88,19,8,25,0.00
2014-3-7,44,30,22,23,18,14,75,62,41,30.11,29.79,23,8,26,0.12
2014-3-8,31,23,8,18,9,-2,70,54,43,30.29,30.11,18,6,18,0.00
2014-3-9,50,30,8,26,15,-3,76,53,37,30.23,29.73,31,5,31,0.00
2014-3-10,56,43,32,30,27,24,77,54,35,29.73,29.67,16,3,20,0.00
2014-3-11,40,36,32,34,25,12,93,66,43,29.93,29.67,25,6,25,0.00
2014-3-12,32,24,18,13,8,5,64,50,41,30.11,29.93,20,7,24,0.00
2014-3-13,51,36,16,31,22,8,76,59,44,30.08,29.61,20,6,20,0.00
2014-3-14,45,38,30,26,24,19,66,56,45,29.96,29.55,29,10,31,0.00
2014-3-15,34,28,23,20,12,6,65,50,42,30.32,29.93,22,7,22,0.00
2014-3-16,27,20,11,7,2,-6,56,45,39,30.44,30.05,23,6,23,0.00
2014-3-17,40,31,19,22,15,5,63,52,42,30.05,29.58,31,9,31,0.00
2014-3-18,44,33,29,31,20,16,92,59,46,29.70,29.58,22,5,22,0.00
2014-3-19,38,32,27,32,22,15,97,69,43,29.99,29.70,27,4,28,0.00
2014-3-20,44,33,21,26,21,17,86,63,40,30.05,29.91,16,2,16,0.00
2014-3-21,51,36,28,30,22,15,66,55,40,30.11,29.76,35,9,35,0.00
2014-3-22,28,20,14,16,4,-1,60,48,42,30.47,30.11,28,11,30,0.00
2014-3-23,29,19,9,7,1,-6,53,45,37,30.53,30.35,16,4,18,0.00
2014-3-24,37,28,19,23,13,4,76,52,41,30.35,30.11,31,8,31,0.00
2014-3-25,26,19,11,7,2,-6,58,47,36,30.29,30.11,30,9,30,0.00
2014-3-26,43,29,11,19,10,-4,61,46,38,30.20,29.64,35,9,38,0.00
2014-3-27,40,37,33,37,34,18,98,91,43,29.64,29.37,27,8,28,0.28
2014-3-28,40,33,30,33,19,15,98,57,41,30.20,29.64,27,8,27,0.00
2014-3-29,47,35,24,24,17,12,66,49,35,30.29,30.11,11,3,15,0.00
2014-3-30,65,48,35,36,28,22,64,47,33,30.14,29.79,28,8,31,0.00
2014-3-31,64,48,27,41,30,12,78,51,38,29.79,29.40,41,12,47,0.31
2014-4-1,40,29,21,22,14,6,74,55,43,30.08,29.61,47,13,47,0.00
2014-4-2,49,37,25,24,21,17,79,54,35,30.17,29.96,24,7,25,0.00
2014-4-3,39,35,32,33,27,19,96,72,53,29.99,29.67,27,9,33,0.16
2014-4-4,40,33,26,32,23,17,97,71,42,30.08,29.58,35,5,37,0.08
2014-4-5,53,38,24,31,24,19,88,60,36,30.17,30.02,22,5,28,0.00
2014-4-6,65,48,34,41,31,20,79,52,34,30.02,29.85,33,7,33,0.00
2014-4-7,62,50,39,45,32,25,91,52,35,29.88,29.73,22,5,22,0.00
2014-4-8,56,43,33,29,25,20,72,50,32,30.02,29.82,26,8,30,0.00
2014-4-9,70,50,28,34,28,20,82,47,24,29.99,29.61,31,7,35,0.00
2014-4-10,60,52,42,34,28,22,61,41,25,29.99,29.58,30,8,31,0.00
2014-4-11,68,53,38,35,28,24,64,40,24,30.02,29.91,27,4,30,0.00
2014-4-12,67,54,46,43,36,26,86,53,38,29.93,29.61,26,8,28,0.00
2014-4-13,46,41,33,42,39,30,96,92,82,29.82,29.64,35,12,40,0.43
2014-4-14,38,32,26,30,13,5,91,48,32,30.11,29.76,34,12,34,0.00
2014-4-15,44,30,19,14,8,4,54,40,29,30.17,30.05,18,6,20,0.00
2014-4-16,58,44,32,32,21,12,57,40,32,30.05,29.76,41,11,41,0.00